User: anonymous   Login
Location: Newark
(51.0000°N, 11.4100°E)
Time: 12:54:10
(UTC+00:00)
Language:

UWE-3 - Orbit

View from above orbital plane
View from above orbital plane
View from above satellite
View from above satellite

Ground track
Ground track

The orbit data is extracted from the following two-line orbital elements,

1 39446U 13066AG  19343.96645604  .00000148  00000-0  26351-4 0  9996
2 39446  97.5868 339.3905 0069202 210.3482 149.3716 14.78462117325015
Epoch (UTC): 09 December 2019 23:11:41
Eccentricity: 0.0069202
inclination: 97.5868°
perigee height: 585 km
apogee height: 683 km
right ascension of ascending node: 339.3905°
argument of perigee: 210.3482°
revolutions per day: 14.78462117
mean anomaly at epoch: 149.3716°
orbit number at epoch: 32501

The dashed part of the orbit path shows where the satellite is in the earth's shadow,  

DLR